KCGS

Details ICAO KCGS
Name College Park
Region United States
Timezone America/New_York (UTC-4.0)
Plans Departing 12
Arriving 4
Stats Elevation 48 ft / 15 m (AMSL)
Location 38.980587° -76.922293°
Runways 1
Magnetic Variation 10.920° W
Sunrise 2018-05-20 09:52:19 UTC / 2018-05-20 05:52:19 Local
Sunset 2018-05-21 00:18:59 UTC / 2018-05-20 20:18:59 Local
Advertisement - Login to hide

Runways

ID Width Length Bearing (true) Bearing (mag) Surface Threshold Offset Overrun Length
15 60 ft / 18 m 2,608 ft / 795 m 138.44° 149.36° Asphalt 416 ft / 127 m 0 ft / 0 m
33 60 ft / 18 m 2,608 ft / 795 m 318.44° 329.36° Asphalt 201 ft / 61 m 0 ft / 0 m

Map

Weather


0- 5 10 15 20 25 30 35+ Temperature / ° C

Clouds and Precipitation
Forecast for 2018-05-21 00:00 UTC. Updated an hour ago

Ground ~20,000 ft ~40,000 ft Winds

METAR

KCGS 202357Z AUTO 00000KT 10SM CLR 27/19 A3001 RMK AO1 T02670186

TAF

Not found

Frequencies

Recorded 121.22 MHz AWOS 3
Approach 119.85 MHz POTOMAC APP/DEP
Unicom 122.97 MHz CTAF/UNICOM
Warning: Do not use this data for real-world aviation or navigation. No guarantee of current accuracy is given.